Trinity Center, CA

5:55 PM PST on February 25, 2017 (GMT -0800)
Trinity Center

Weather History for KO86 - December, 2012

Change the Weather History Date:

Thursday, December 27, 2012

  Actual Average (KMHS) Record (KMHS)
Temperature  
Mean Temperature 32 °F -  
Max Temperature 37 °F 41 °F 59 °F (1999)
Min Temperature 26 °F 26 °F 9 °F (1988)
Degree Days  
Heating Degree Days 34    
Moisture  
Dew Point 30 °F    
Average Humidity 93    
Maximum Humidity 100    
Minimum Humidity 81    
Precipitation  
Precipitation 0.00 in - - ()
Sea Level Pressure  
Sea Level Pressure 30.17 in    
Wind  
Wind Speed 2 mph (West)    
Max Wind Speed 6 mph    
Max Gust Speed -    
Visibility 9 miles    
Events      
Averages and records for this station are not official NWS values.
T = Trace of Precipitation, MM = Missing Value Source: NWS Daily Summary

Daily Weather History Graph

Daily Weather History Graph

Search for Another Location

Airport or City:

Trip Planner

Search our weather history database for the weather conditions in past years. The results will help you decide how hot, cold, wet, or windy it might be!

Date:

Astronomy

Dec. 27, 2012 Rise Set
Actual Time 7:34 AM PST 4:49 PM PST
Civil Twilight 7:03 AM PST 5:20 PM PST
Nautical Twilight 6:29 AM PST 5:55 PM PST
Astronomical Twilight 5:55 AM PST 6:28 PM PST
Moon 4:38 PM PST (12/27) 6:49 AM PST (12/27)
Length of Visible Light 10h 17m
Length of Day
9h 14m
Full, 100% of the Moon is Illuminated
Dec 27
Full
Dec 28
Full
Jan 4
Last Quarter
Jan 11
New
Jan 18
First Quarter

Hourly Weather History & Observations

Time (PST) Temp. Windchill Dew Point Humidity Pressure Visibility Wind Dir Wind Speed Gust Speed Precip Events Conditions
12:10 AM 32.0 °F - 32.0 °F 100% 30.11 in 5.0 mi Calm Calm - N/A   Overcast
12:30 AM 32.0 °F 28.7 °F 32.0 °F 100% 30.10 in 10.0 mi WNW 3.5 mph - N/A   Overcast
12:50 AM 32.0 °F - 32.0 °F 100% 30.10 in 10.0 mi Calm Calm - N/A   Overcast
1:10 AM 32.0 °F 28.7 °F 32.0 °F 100% 30.11 in 10.0 mi WNW 3.5 mph - N/A   Overcast
1:30 AM 32.0 °F - 32.0 °F 100% 30.11 in 10.0 mi Calm Calm - N/A   Overcast
1:50 AM 32.0 °F 28.7 °F 32.0 °F 100% 30.11 in 10.0 mi West 3.5 mph - N/A   Overcast
2:10 AM 32.0 °F - 32.0 °F 100% 30.12 in 10.0 mi Calm Calm - N/A   Overcast
2:30 AM 32.0 °F 28.7 °F 32.0 °F 100% 30.12 in 10.0 mi West 3.5 mph - N/A   Overcast
2:50 AM 32.0 °F 28.7 °F 32.0 °F 100% 30.12 in 10.0 mi West 3.5 mph - N/A   Overcast
3:10 AM 32.0 °F 27.5 °F 32.0 °F 100% 30.12 in 10.0 mi West 4.6 mph - N/A   Overcast
3:30 AM 32.0 °F 27.5 °F 32.0 °F 100% 30.12 in 10.0 mi West 4.6 mph - N/A   Overcast
3:50 AM 32.0 °F 28.7 °F 32.0 °F 100% 30.13 in 10.0 mi West 3.5 mph - N/A   Overcast
4:30 AM 32.0 °F - 30.2 °F 93% 30.13 in 10.0 mi Calm Calm - N/A   Overcast
4:50 AM 32.0 °F 28.7 °F 32.0 °F 100% 30.13 in 10.0 mi West 3.5 mph - N/A   Overcast
5:10 AM 32.0 °F 27.5 °F 30.2 °F 93% 30.13 in 10.0 mi West 4.6 mph - N/A   Overcast
5:30 AM 32.0 °F 28.7 °F 32.0 °F 100% 30.14 in 10.0 mi WNW 3.5 mph - N/A   Overcast
5:50 AM 32.0 °F - 30.2 °F 93% 30.14 in 10.0 mi Calm Calm - N/A   Overcast
6:10 AM 32.0 °F 28.7 °F 30.2 °F 93% 30.15 in 10.0 mi NW 3.5 mph - N/A   Overcast
6:30 AM 32.0 °F - 30.2 °F 93% 30.15 in 7.0 mi Calm Calm - N/A   Overcast
6:50 AM 32.0 °F - 30.2 °F 93% 30.15 in 7.0 mi Calm Calm - N/A   Overcast
7:10 AM 32.0 °F - 30.2 °F 93% 30.16 in 8.0 mi Calm Calm - N/A   Overcast
7:30 AM 32.0 °F 28.7 °F 28.4 °F 87% 30.17 in 3.0 mi WNW 3.5 mph - N/A   Overcast
7:50 AM 32.0 °F - 30.2 °F 93% 30.17 in 9.0 mi Calm Calm - N/A   Overcast
8:10 AM 32.0 °F - 30.2 °F 93% 30.18 in 10.0 mi Calm Calm - N/A   Overcast
8:30 AM 32.0 °F - 30.2 °F 93% 30.18 in 10.0 mi Calm Calm - N/A   Overcast
8:50 AM 32.0 °F - 28.4 °F 87% 30.19 in 10.0 mi Calm Calm - N/A   Overcast
9:10 AM 32.0 °F - 28.4 °F 87% 30.19 in 8.0 mi Calm Calm - N/A   Overcast
9:30 AM 32.0 °F - 28.4 °F 87% 30.19 in 10.0 mi Calm Calm - N/A   Overcast
9:50 AM 32.0 °F - 28.4 °F 87% 30.20 in 10.0 mi Calm Calm - N/A   Overcast
10:10 AM 32.0 °F - 28.4 °F 87% 30.21 in 10.0 mi Calm Calm - N/A   Overcast
10:30 AM 32.0 °F - 28.4 °F 87% 30.21 in 10.0 mi Calm Calm - N/A   Overcast
10:50 AM 33.8 °F - 28.4 °F 81% 30.21 in 10.0 mi Calm Calm - N/A   Mostly Cloudy
11:10 AM 33.8 °F - 28.4 °F 81% 30.21 in 10.0 mi Calm Calm - N/A   Overcast
11:30 AM 33.8 °F - 28.4 °F 81% 30.20 in 10.0 mi Calm Calm - N/A   Overcast
12:10 PM 35.6 °F - 30.2 °F 81% 30.19 in 10.0 mi Calm Calm - N/A   Scattered Clouds
12:30 PM 35.6 °F - 30.2 °F 81% 30.18 in 10.0 mi Calm Calm - N/A   Scattered Clouds
12:50 PM 35.6 °F - 32.0 °F 87% 30.18 in 10.0 mi Calm Calm - N/A   Mostly Cloudy
1:10 PM 35.6 °F - 32.0 °F 87% 30.18 in 10.0 mi Calm Calm - N/A   Overcast
1:30 PM 35.6 °F - 32.0 °F 87% 30.18 in 10.0 mi Calm Calm - N/A   Mostly Cloudy
1:50 PM 35.6 °F - 32.0 °F 87% 30.17 in 10.0 mi Calm Calm - N/A   Partly Cloudy
2:10 PM 35.6 °F - 32.0 °F 87% 30.17 in 10.0 mi Calm Calm - N/A   Scattered Clouds
2:30 PM 35.6 °F - 32.0 °F 87% 30.17 in 10.0 mi Calm Calm - N/A   Mostly Cloudy
2:50 PM 37.4 °F - 32.0 °F 81% 30.17 in 10.0 mi Calm Calm - N/A   Scattered Clouds
3:10 PM 35.6 °F - 32.0 °F 87% 30.18 in 10.0 mi Calm Calm - N/A   Clear
3:30 PM 35.6 °F - 32.0 °F 87% 30.17 in 10.0 mi Calm Calm - N/A   Clear
4:30 PM 32.0 °F 27.5 °F 32.0 °F 100% 30.18 in 9.0 mi West 4.6 mph - N/A   Clear
4:50 PM 32.0 °F 27.5 °F 32.0 °F 100% 30.19 in 10.0 mi West 4.6 mph - N/A   Clear
5:10 PM 32.0 °F 28.7 °F 32.0 °F 100% 30.19 in 4.0 mi West 3.5 mph - N/A   Clear
5:30 PM 32.0 °F 28.7 °F 32.0 °F 100% 30.20 in 8.0 mi West 3.5 mph - N/A   Clear
6:10 PM 32.0 °F 28.7 °F 32.0 °F 100% 30.20 in 1.2 mi WNW 3.5 mph - N/A   Mostly Cloudy
6:30 PM 32.0 °F - 32.0 °F 100% 30.20 in 7.0 mi Calm Calm - N/A   Overcast
6:50 PM 30.2 °F - 30.2 °F 100% 30.20 in 1.5 mi Calm Calm - N/A   Overcast
7:10 PM 32.0 °F - 30.2 °F 93% 30.20 in 9.0 mi Calm Calm - N/A   Overcast
7:30 PM 32.0 °F 28.7 °F 30.2 °F 93% 30.21 in 10.0 mi West 3.5 mph - N/A   Overcast
7:50 PM 32.0 °F 28.7 °F 30.2 °F 93% 30.21 in 9.0 mi West 3.5 mph - N/A   Overcast
8:10 PM 32.0 °F 28.7 °F 30.2 °F 93% 30.21 in 10.0 mi West 3.5 mph - N/A   Overcast
8:30 PM 30.2 °F 25.4 °F 30.2 °F 100% 30.21 in 10.0 mi West 4.6 mph - N/A   Mostly Cloudy
8:50 PM 30.2 °F 26.7 °F 28.4 °F 93% 30.21 in 8.0 mi West 3.5 mph - N/A   Scattered Clouds
9:10 PM 30.2 °F 26.7 °F 28.4 °F 93% 30.21 in 10.0 mi West 3.5 mph - N/A   Partly Cloudy
9:30 PM 28.4 °F 23.3 °F 28.4 °F 100% 30.21 in 10.0 mi West 4.6 mph - N/A   Partly Cloudy
9:50 PM 28.4 °F 24.6 °F 28.4 °F 100% 30.21 in 10.0 mi West 3.5 mph - N/A   Clear
10:10 PM 28.4 °F 23.3 °F 28.4 °F 100% 30.21 in 10.0 mi West 4.6 mph - N/A   Clear
10:30 PM 28.4 °F 22.2 °F 26.6 °F 93% 30.22 in 10.0 mi West 5.8 mph - N/A   Partly Cloudy
10:50 PM 28.4 °F 24.6 °F 26.6 °F 93% 30.22 in 10.0 mi West 3.5 mph - N/A   Partly Cloudy
11:10 PM 26.6 °F - 26.6 °F 100% 30.21 in 9.0 mi Calm Calm - N/A   Partly Cloudy
11:30 PM 26.6 °F 21.2 °F 26.6 °F 100% 30.21 in 10.0 mi West 4.6 mph - N/A   Clear
11:50 PM 26.6 °F - 24.8 °F 93% 30.21 in 10.0 mi Calm Calm - N/A   Clear